Regional Weather Roundup
Issued by NWS

Home | Current Version | Previous Version | Text Only | Print | Product List | Glossary Off
Versions: 1 2 3 4 5 6 7 8 9 10 11 12 13 14 15 16 17 18 19 20 21 22 23 24 25 26 27

000
ASUS45 KSLC 230510
RWRUT

UTAH REGIONAL WEATHER ROUNDUP
NATIONAL WEATHER SERVICE SALT LAKE CITY UT
1100 PM MDT SAT JUL 22 2017

UTZ001>011-023>025-230600-

NORTHERN UTAH

CITY           SKY/WX    TMP DP  RH WIND       PRES   REMARKS
BRIGHAM CITY   CLEAR     83  30  15 CALM      30.08R
HILL AFB       MOCLDY    80  34  19 E8        30.11R
LOGAN          CLEAR     75  43  31 S6        30.11R
OGDEN          PTCLDY    78  41  26 S3        30.07R
SALT LAKE CITY MOCLDY    84  49  29 S6        30.05R
TOOELE VALLEY  MOCLDY    75  52  43 S7        30.08R
WENDOVER       MOCLDY    85  40  20 W8        30.07R
HEBER CITY     CLOUDY    64  50  59 CALM      30.18S
WEST JORDAN    CLOUDY    77  55  46 CALM      30.10R

$$

UTZ011>015-024>027-230600-

CENTRAL/NORTHEAST UTAH

CITY           SKY/WX    TMP DP  RH WIND       PRES   REMARKS
PROVO AIRPORT  CLOUDY    75  60  59 E3        30.09R
MOAB/CANYONLAN MOCLDY    81  53  37 SW3       30.05R
DELTA          CLOUDY    79  41  25 CALM      30.10S
PRICE          PTCLDY    71  46  40 NE5       30.19S
RICHFIELD      CLEAR     70  52  52 CALM      30.19R
ROOSEVELT      CLEAR     68  50  52 W5        30.16R
VERNAL         CLEAR     75  44  33 NW8       30.14S

$$

UTZ013>016-019>022-027-230600-

SOUTHERN UTAH

CITY           SKY/WX    TMP DP  RH WIND       PRES   REMARKS
BRYCE CANYON   CLOUDY    67  49  52 W13       30.38R
CEDAR CITY     CLOUDY    78  47  33 NE6       30.18F
MILFORD        CLOUDY    84  41  21 NW12      30.11F
ST GEORGE      CLOUDY    89  53  29 S5        29.92R
HANKSVILLE     MOCLDY    84  43  23 S6        30.07S
KANAB          CLEAR     75  57  53 N9        30.14R
BLANDING       PTCLDY    63  56  78 NW5       30.30R

$$

REGIONAL REPORTS     COLORADO/ARIZONA

CITY           SKY/WX    TMP DP  RH WIND       PRES   REMARKS
CRAIG, CO      CLOUDY    58  47  66 CALM      30.25R
GRAND JUNCTION CLEAR     79  48  33 SE14G23   30.11R
RIFLE, CO      CLEAR     72  43  35 CALM      30.17R
MONTROSE, CO   CLEAR     73  45  36 E12       30.22S
CORTEZ, CO     CLOUDY    63  52  67 S7        30.22S
COLORADO CITY    N/A     73  66  78 CALM      30.12R
PAGE, AZ       PTCLDY    88  49  25 E7        30.04R
GRAND CANYON   PTCLDY    69  47  45 E5        30.26R
KINGMAN, AZ    CLOUDY    78  63  59 S13       30.07R
FLAGSTAFF, AZ  CLOUDY    63  57  81 CALM      30.29R

$$

REGIONAL REPORTS    NEVADA/IDAHO/WYOMING

CITY           SKY/WX    TMP DP  RH WIND       PRES   REMARKS
LAS VEGAS, NV  PTCLDY   102  52  18 S3        29.82R HX  99
ELY, NY        CLOUDY    72  43  35 SE6       30.27R
ELKO, NV       PTCLDY    83  38  20 E15       30.14R
POCATELLO, ID  CLEAR     70  35  27 E5        30.13R
BURLEY, ID     CLEAR     64  47  53 SW6       30.09R
FORT BRIDGER,    N/A     67  28  23 W7        30.34R
EVANSTON, WY   CLOUDY    71  30  21 E3        30.32S
ROCK SPRINGS,  CLOUDY    72  27  18 W5        30.27R
KEMMERER, WY     N/A    N/A N/A N/A N9        30.33S

$$




USA.gov is the U.S. government's official web portal to all federal, state and local government web resources and services.